Weather in Douala

Cameroon     4°02′19″N   9°44′01″E
temp.,
°C
wind,
m/s
gust,
m/s
humid.,
%
clouds,
%
prec.,
mm/h
press.,
hPa
HPBL,
m
24 october, sun
sun2401:00+23nne1292100 0.7 101386
04:00+23ne129299 0.0 101259
07:00+24ne1291100 0.0 1014113
10:00+30wnw016692 0.0 1014773
13:00+31wsw215994 0.0 10111036
16:00+28sw22736 0.0 1009492
19:00+25wsw268948 0.0 1010195
22:00+25ssw13915 0.3 1013107
25 october, mon
mon2501:00+24ese009517 2.6 101225
04:00+24ne1197100 0.1 101133
07:00+24ene2498100 5.2 1013140
10:00+25wnw1192100 4.0 1014225
13:00+29wnw116882 4.0 1011925
16:00+29sw3368100 0.1 1009858
19:00+26sw2685100 0.2 1011289
22:00+25sw1388100 0.3 1013133
26 october, tue
tue2601:00+24s1193100 2.4 101261
04:00+23nw1297100 4.9 1012120
07:00+23nnw2398100 9.5 1013173
10:00+23n1295100 1.5 1015193
13:00+27wsw1277100 1.6 1012686
16:00+25sw358499 0.3 1011510
19:00+24wsw259083 0.8 1012234
22:00+24nnw119193 0.0 101365
27 october, wed
wed2701:00+23n129598 0.0 101256
04:00+23n0193100 0.0 101144
07:00+23sse1193100 0.0 101453
10:00+24ese1291100 0.1 1015174
13:00+24nne1289100 0.1 1013250
16:00+25nne258190 0.0 1011551
19:00+24nw1188100 0.0 101144
22:00+23n1288100 0.0 101351
28 october, thu
thu2801:00+23nne129251 0.0 101149
04:00+22ne129661 0.0 101148
07:00+23ene119170 0.0 1013101
10:00+30n006444 0.0 1014889
13:00+32wsw225220 0.0 10101518
16:00+29sw456721 0.0 1008536
19:00+26sw38825 0.1 1010370
22:00+25sw13876 0.0 1012141